"Pseudo-MPEC" for P11ZDQB

Created 2024 Oct 4 20:22:21 UT using Find_Orb

Click here for an explanation of pseudo-MPECs

 
 Astrometry: 
     P11ZDQB* C2024 09 29.48782202 54 58.721-30 15 26.15   ~9U0b 22.28wXNEOCPF51
     P11ZDQB  C2024 09 29.49760002 54 59.284-30 15 16.91   ~9U0b 21.95wXNEOCPF51
     P11ZDQB  C2024 09 29.50737802 54 59.807-30 15 07.58   ~9U0b 22.24wXNEOCPF51
     P11ZDQB  C2024 10 04.51105603 02 39.025-28 23 34.41   ~A4F7 21.72wXNEOCPF51
     P11ZDQB  C2024 10 04.52081903 02 39.527-28 23 17.41   ~A4F7 22.14wXNEOCPF51
     P11ZDQB  C2024 10 04.53085803 02 40.045-28 23 00.29   ~A4F7 21.70wXNEOCPF51

Station data:
(F51) Pan-STARRS 1, Haleakala  (N20.707234 W156.255910)  US/Hawaii.
   Observers J. Bulger, T. Lowe, A. Schultz, M. Willman. Measurers K.
   Chambers, S. Chastel, T. de Boer, L. Denneau, J. Fairlamb, H. Flewelling,
   M. Huber, C.-C. Lin, E. Magnier, Y. Ramanjooloo, R. Wainscoat, R. Weryk.
   1.8-m Ritchey-Chrétien + CCD.

Orbital elements:  P11ZDQB
   Perihelion 2024 Nov 28.48248 +/- 1.5 TT = 11:34:46 (JD 2460642.98248)
Epoch 2024 Oct  4.0 TT = JDT 2460587.5   Earth MOID: 0.0252      AutoNEOCP
M 318.74206343 +/- 1.3              (J2000 ecliptic)
n   0.74362097 +/- 0.00692          Peri.   34.22661 +/- 2.7
a   1.20661381 +/- 0.00749          Node    34.70192 +/- 0.8
e   0.1757316 +/- 0.00595           Incl.    9.14136 +/- 0.34
P   1.325/484.108d         H 25.00  G  0.15   U  9.4
q 0.99457358 +/- 0.00602    Q 1.41865404 +/- 0.0143
From 6 observations 2024 Sept. 29-Oct. 4; mean residual 0".09
Residuals in arcseconds: 
240929 F51  .01-  .02-    240929 F51  .14-  .00     241004 F51  .01-  .18+    
240929 F51  .15+  .02+    241004 F51  .04-  .04-    241004 F51  .05+  .14-    

Ephemerides (geocentric):
Date (UTC) HH   RA             Dec           delta  r     elong  mag " sig PA
---- --------  ------------   ------------  ------ ------ -----  --- --------
2024 10 04 20  03 03 08.584   -28 12 54.98  .09223 1.0651 132.9 21.6 1.59 168
2024 10 04 21  03 03 12.482   -28 11 40.04  .09209 1.0650 133.0 21.6 1.59 166
2024 10 04 22  03 03 16.382   -28 10 24.77  .09195 1.0649 133.0 21.6 1.58 165
2024 10 04 23  03 03 20.284   -28 09 09.17  .09181 1.0648 133.0 21.6 1.58 163
2024 10 05 00  03 03 24.188   -28 07 53.24  .09167 1.0647 133.0 21.6 1.58 161
2024 10 05 01  03 03 28.094   -28 06 36.96  .09152 1.0646 133.0 21.6 1.59 159
2024 10 05 02  03 03 32.001   -28 05 20.35  .09138 1.0645 133.0 21.6 1.59 157
2024 10 05 03  03 03 35.911   -28 04 03.40  .09124 1.0644 133.1 21.6 1.60 155
2024 10 05 04  03 03 39.822   -28 02 46.11  .09110 1.0643 133.1 21.6 1.60 153
2024 10 05 05  03 03 43.735   -28 01 28.48  .09096 1.0642 133.1 21.6 1.61 150
2024 10 05 06  03 03 47.651   -28 00 10.51  .09082 1.0641 133.1 21.6 1.63 148
2024 10 05 07  03 03 51.568   -27 58 52.19  .09068 1.0640 133.1 21.6 1.64 146
2024 10 05 08  03 03 55.487   -27 57 33.52  .09054 1.0639 133.1 21.6 1.66 144
2024 10 05 09  03 03 59.408   -27 56 14.51  .09040 1.0639 133.2 21.6 1.68 142
2024 10 05 10  03 04 03.332   -27 54 55.15  .09026 1.0638 133.2 21.6 1.70 140
2024 10 05 11  03 04 07.257   -27 53 35.43  .09011 1.0637 133.2 21.6 1.72 138
2024 10 05 12  03 04 11.185   -27 52 15.37  .08997 1.0636 133.2 21.6 1.75 136
2024 10 05 13  03 04 15.114   -27 50 54.95  .08983 1.0635 133.2 21.6 1.78 134
2024 10 05 14  03 04 19.046   -27 49 34.18  .08969 1.0634 133.2 21.6 1.81 132
2024 10 05 15  03 04 22.980   -27 48 13.05  .08955 1.0633 133.3 21.6 1.84 130
2024 10 05 16  03 04 26.916   -27 46 51.56  .08941 1.0632 133.3 21.6 1.88 128
2024 10 05 17  03 04 30.855   -27 45 29.71  .08927 1.0631 133.3 21.6 1.91 127
2024 10 05 18  03 04 34.795   -27 44 07.50  .08913 1.0630 133.3 21.6 1.95 125
2024 10 05 19  03 04 38.738   -27 42 44.93  .08899 1.0629 133.3 21.5 2.00 123
2024 10 05 20  03 04 42.683   -27 41 22.00  .08885 1.0628 133.4 21.5 2.04 121
2024 10 05 21  03 04 46.631   -27 39 58.70  .08871 1.0627 133.4 21.5 2.09 120
2024 10 05 22  03 04 50.580   -27 38 35.03  .08857 1.0626 133.4 21.5 2.14 118
2024 10 05 23  03 04 54.532   -27 37 10.99  .08843 1.0625 133.4 21.5 2.19 116
2024 10 06 00  03 04 58.487   -27 35 46.58  .08829 1.0624 133.4 21.5 2.24 115
2024 10 06 01  03 05 02.444   -27 34 21.80  .08815 1.0623 133.4 21.5 2.30 113
2024 10 06 02  03 05 06.403   -27 32 56.64  .08801 1.0622 133.5 21.5 2.36 112
2024 10 06 03  03 05 10.365   -27 31 31.11  .08787 1.0621 133.5 21.5 2.42 111
2024 10 06 04  03 05 14.329   -27 30 05.21  .08773 1.0620 133.5 21.5 2.48 109
2024 10 06 05  03 05 18.295   -27 28 38.92  .08759 1.0619 133.5 21.5 2.54 108
2024 10 06 06  03 05 22.264   -27 27 12.25  .08745 1.0618 133.5 21.5 2.61 107
2024 10 06 07  03 05 26.236   -27 25 45.21  .08731 1.0617 133.6 21.5 2.67 106
2024 10 06 08  03 05 30.210   -27 24 17.77  .08717 1.0617 133.6 21.5 2.74 105
2024 10 06 09  03 05 34.187   -27 22 49.96  .08703 1.0616 133.6 21.5 2.82 103
2024 10 06 10  03 05 38.167   -27 21 21.75  .08689 1.0615 133.6 21.5 2.89 102
2024 10 06 11  03 05 42.149   -27 19 53.16  .08675 1.0614 133.6 21.5 2.96 101
2024 10 06 12  03 05 46.133   -27 18 24.18  .08661 1.0613 133.6 21.5 3.04 100
2024 10 06 13  03 05 50.121   -27 16 54.80  .08647 1.0612 133.7 21.5 3.12  99
2024 10 06 14  03 05 54.111   -27 15 25.03  .08633 1.0611 133.7 21.5 3.20  98
2024 10 06 15  03 05 58.104   -27 13 54.87  .08619 1.0610 133.7 21.5 3.28  97
2024 10 06 16  03 06 02.099   -27 12 24.31  .08605 1.0609 133.7 21.5 3.37  97
2024 10 06 17  03 06 06.098   -27 10 53.35  .08591 1.0608 133.7 21.5 3.45  96
2024 10 06 18  03 06 10.099   -27 09 21.98  .08577 1.0607 133.8 21.5 3.54  95
2024 10 06 19  03 06 14.103   -27 07 50.22  .08563 1.0606 133.8 21.5 3.63  94